Weather History for Cape Girardeau, MO

Change the Weather History Date:

Wednesday, July 2, 2014

  Actual Average Record
Temperature  
Mean Temperature 75 °F 78 °F  
Max Temperature 83 °F 89 °F 101 °F (1970)
Min Temperature 67 °F 68 °F 58 °F (1995)
Degree Days  
Heating Degree Days 0 0  
Month to date heating degree days 0 0  
Since 1 June heating degree days 0 4  
Since 1 July heating degree days 0 0  
Cooling Degree Days 10 13  
Month to date cooling degree days 26 26  
Year to date cooling degree days 596 490  
Since 1 June cooling degree days 385 338  
Growing Degree Days 25 (Base 50)    
Moisture  
Dew Point 64 °F    
Average Humidity 72    
Maximum Humidity 100    
Minimum Humidity 43    
Precipitation  
Precipitation 0.00 in 0.10 in 1.22 in (1972)
Month to date precipitation 0.89 0.21  
Year to date precipitation 26.78 24.88  
Sea Level Pressure  
Sea Level Pressure 29.98 in    
Wind  
Wind Speed 7 mph (WNW)    
Max Wind Speed 15 mph    
Max Gust Speed 17 mph    
Visibility 10 miles    
Events      
T = Trace of Precipitation, MM = Missing Value Source: NWS Daily Summary

Daily Weather History Graph

Daily Weather History Graph

Search for Another Location

Airport:

Trip Planner

Search our weather history database for the weather conditions in past years. The results will help you decide how hot, cold, wet, or windy it might be!

Date:

Astronomy

Jul. 02, 2014 Rise Set
Actual Time 5:42 AM CDT 8:22 PM CDT
Civil Twilight 5:11 AM CDT 8:53 PM CDT
Nautical Twilight 4:32 AM CDT 9:31 PM CDT
Astronomical Twilight 3:49 AM CDT 10:14 PM CDT
Moon 10:38 AM CDT (7/2) 11:23 PM CDT (7/2)
Length of Visible Light 15h 41m
Length of Day
14h 40m
Waxing Crescent, 24% of the Moon is Illuminated
Jul 2
Waxing Crescent
Jul 5
First Quarter
Jul 12
Full
Jul 18
Last Quarter
Jul 26
New

Hourly Weather History & Observations

Time (CDT) Temp. Heat Index Dew Point Humidity Pressure Visibility Wind Dir Wind Speed Gust Speed Precip Events Conditions
12:53 AM 71.1 °F - 70.0 °F 96% 29.95 in 8.0 mi WSW 3.5 mph - N/A   Clear
1:45 AM 72.0 °F - 70.0 °F 93% 29.96 in 10.0 mi WSW 5.8 mph - N/A   Scattered Clouds
1:53 AM 72.0 °F - 70.0 °F 93% 29.94 in 9.0 mi WSW 5.8 mph - N/A   Scattered Clouds
2:53 AM 72.0 °F - 70.0 °F 93% 29.94 in 10.0 mi West 5.8 mph - N/A   Clear
3:32 AM 71.1 °F - 70.0 °F 96% 29.94 in 6.0 mi West 3.5 mph - N/A   Partly Cloudy
3:53 AM 71.1 °F - 70.0 °F 96% 29.93 in 7.0 mi WSW 5.8 mph - N/A   Partly Cloudy
4:53 AM 70.0 °F - 69.1 °F 97% 29.92 in 7.0 mi WNW 3.5 mph - N/A   Clear
5:53 AM 70.0 °F - 66.9 °F 90% 29.94 in 10.0 mi West 5.8 mph - N/A   Clear
6:53 AM 71.1 °F - 68.0 °F 90% 29.93 in 10.0 mi Calm Calm - N/A   Clear
7:53 AM 73.9 °F - 70.0 °F 87% 29.95 in 10.0 mi NW 6.9 mph - N/A   Clear
8:53 AM 75.0 °F - 66.0 °F 73% 29.96 in 10.0 mi NNW 6.9 mph - N/A   Clear
9:53 AM 77.0 °F - 64.9 °F 66% 29.98 in 10.0 mi NNW 9.2 mph - N/A   Clear
10:53 AM 78.1 °F - 63.0 °F 60% 29.99 in 10.0 mi NW 9.2 mph - N/A   Clear
11:53 AM 80.1 °F 81.5 °F 63.0 °F 56% 30.01 in 10.0 mi NW 10.4 mph - N/A   Clear
12:53 PM 81.0 °F 81.7 °F 61.0 °F 50% 30.01 in 10.0 mi WNW 12.7 mph - N/A   Clear
1:53 PM 82.4 °F 82.9 °F 60.8 °F 48% 30.03 in 10.0 mi NNW 9.2 mph - N/A   Clear
2:53 PM 82.0 °F 82.1 °F 59.0 °F 45% 30.01 in 10.0 mi Variable 5.8 mph - N/A   Clear
3:53 PM 82.4 °F 82.9 °F 60.8 °F 48% 30.02 in 10.0 mi WNW 10.4 mph 16.1 mph N/A   Partly Cloudy
4:53 PM 82.0 °F 82.0 °F 57.9 °F 44% 30.01 in 10.0 mi WNW 11.5 mph - N/A   Clear
5:53 PM 81.0 °F 81.3 °F 59.0 °F 47% 30.00 in 10.0 mi NNW 9.2 mph - N/A   Clear
6:53 PM 77.0 °F - 57.9 °F 52% 30.01 in 10.0 mi NW 6.9 mph - N/A   Partly Cloudy
7:53 PM 75.0 °F - 59.0 °F 57% 30.00 in 10.0 mi NNW 5.8 mph - N/A   Clear
8:53 PM 70.0 °F - 62.1 °F 76% 30.01 in 10.0 mi NW 3.5 mph - N/A   Clear
9:53 PM 68.0 °F - 64.0 °F 87% 30.04 in 10.0 mi Calm Calm - N/A   Clear
10:53 PM 68.0 °F - 63.0 °F 84% 30.06 in 10.0 mi Calm Calm - N/A   Clear
11:53 PM 68.0 °F - 57.9 °F 70% 30.07 in 10.0 mi North 6.9 mph - N/A   Partly Cloudy